Simultaneous Nadir Overpasses (SNOs) Predictions

Prediction of SNOs between GOES-16 and NPP Satellite Orbit:

Table of predicted SNOs for the next 14.0 days since TLE Epoch: 11/28/2025
Index Date Time (GOES-16) GOES-16 Lat,Lon NPP Lat,Lon Distance(km) Time Diff (sec)
1 11/29/2025 20:44:09 -0.01,-104.66 -0.96,-108.89 482.62 80
2 11/30/2025 20:28:07 -0.01,-104.66 0.04,-104.36 33.64 80
3 12/03/2025 08:31:16 0.02,-104.69 0.13,-105.11 48.74 80
4 12/04/2025 08:09:54 0.01,-104.68 -0.93,-100.59 466.65 80
5 12/05/2025 20:31:53 -0.02,-104.65 -0.30,-105.90 141.68 80
6 12/06/2025 20:15:51 -0.02,-104.65 0.71,-101.37 373.99 80
7 12/08/2025 08:37:42 0.02,-104.68 0.45,-106.65 223.83 80
8 12/09/2025 08:16:20 0.01,-104.68 -0.56,-102.12 291.64 80
9 12/10/2025 20:38:19 -0.02,-104.65 -0.66,-107.42 316.70 80
10 12/11/2025 20:22:17 -0.01,-104.65 0.35,-102.90 199.64 80
